Regional Weather Roundup
Issued by NWS

Home | Current Version | Previous Version | Graphics & Text | Print | Product List | Glossary On
Versions: 1 2 3 4 5 6 7 8 9 10 11 12 13 14 15 16 17 18 19 20 21 22 23 24 25 26 27 28 29 30 31 32 33 34 35 36 37 38 39 40 41 42 43 44 45 46 47 48 49 50
000
ASUS43 KFSD 270102
RWRSD

WEATHER ROUNDUP FOR SOUTH DAKOTA
NATIONAL WEATHER SERVICE SIOUX FALLS SD
700 PM CST THU FEB 26 2015

NOTE: "FAIR" INDICATES FEW OR NO CLOUDS BELOW 12,000 FEET WITH NO
SIGNIFICANT WEATHER AND/OR OBSTRUCTIONS TO VISIBILITY.


SDZ001>005-009-010-012>017-270200-
NORTHWEST AND NORTH CENTRAL SOUTH DAKOTA

CITY           SKY/WX    TMP DP  RH WIND       PRES   REMARKS
BUFFALO          N/A      7  -5  57 N6        30.33S WCI  -3
FAITH            N/A      6  -5  60 NE7       30.43S WCI  -6
MOBRIDGE       CLEAR      1  -8  66 N7        30.49S WCI -12
$$

SDZ012>016-024>037-041>051-057-063-072>074-270200-
SOUTHWEST AND SOUTH CENTRAL SOUTH DAKOTA

CITY           SKY/WX    TMP DP  RH WIND       PRES   REMARKS
RAPID CTY ARPT CLEAR      0  -8  69 NW8       30.39S WCI -14
PIERRE         CLEAR      5  -4  66 N6        30.52R WCI  -6
CUSTER         PTCLDY    -3  -8  79 E6        30.15R WCI -15
ELLSWORTH AFB  CLEAR      2  -6  66 W8        30.38R WCI -11
PHILIP         CLEAR      7  -7  52 NE6       30.48R WCI  -3
PINE RIDGE     PTCLDY     6  -4  63 NE6       30.37R WCI  -4
WINNER         FAIR       5  -8  55 N7        30.49R WCI  -7
$$

SDZ004>011-016>023-039-040-270200-
NORTHEAST SOUTH DAKOTA

CITY           SKY/WX    TMP DP  RH WIND       PRES   REMARKS
ABERDEEN       CLEAR      0  -9  65 NW7       30.55S WCI -13
WATERTOWN      CLEAR     -3  -9  75 NW9       30.47R WCI -19
SISSETON         N/A     -3  -9  75 NW8       30.52S WCI -18
$$

SDZ017-020-022-023-036>040-048>070-270200-
SOUTHEAST SOUTH DAKOTA

CITY           SKY/WX    TMP DP  RH WIND       PRES   REMARKS
SIOUX FALLS    CLEAR     -1  -8  72 NW9       30.51R WCI -16
HURON          CLEAR     -3 -11  68 NW6       30.56R WCI -15
MITCHELL       CLEAR      2  -5  72 NW9       30.57R WCI -13
YANKTON        CLEAR      3  -6  66 N8        30.55R WCI -10
$$

ABBREVIATIONS USED IN REMARKS
   TC - TEMPERATURE IN CELSIUS
  WCI - WIND CHILL INDEX
   HX - HEAT INDEX
  VSB - VISIBILITY



USA.gov is the U.S. government's official web portal to all federal, state and local government web resources and services.